| time (UTC) | temp F | wind direction | speed MPH | gust MPH | rain 1hr in | rain 24hr in | rain mn in | humidity % | barometer mb |
| 20260905153353 | 91 | 250 | 16.0 | 0.0 | 0.00 | 0.00 | 0.00 | 28 | 1013.0 |
| 20260905151854 | 91 | 250 | 16.0 | 0.0 | 0.00 | 0.00 | 0.00 | 28 | 1013.0 |
| 20260905150354 | 91 | 250 | 16.0 | 0.0 | 0.00 | 0.00 | 0.00 | 28 | 1013.0 |
| 20260905144847 | 91 | 250 | 18.0 | 0.0 | 0.00 | 0.00 | 0.00 | 30 | 1013.0 |
| 20260905143353 | 91 | 250 | 18.0 | 0.0 | 0.00 | 0.00 | 0.00 | 30 | 1013.0 |
| 20260905141851 | 91 | 250 | 18.0 | 0.0 | 0.00 | 0.00 | 0.00 | 30 | 1013.0 |
| 20260905140350 | 91 | 250 | 18.0 | 0.0 | 0.00 | 0.00 | 0.00 | 30 | 1013.0 |
| 20260905135013 | 0 | 0.0 | 0.0 | 0.00 | 0.00 | 0.00 | |||
| 20260905133354 | 93 | 230 | 16.0 | 0.0 | 0.00 | 0.00 | 0.00 | 30 | 1013.0 |
| 20260905131856 | 93 | 230 | 16.0 | 0.0 | 0.00 | 0.00 | 0.00 | 30 | 1013.0 |
| 20260905130415 | 93 | 230 | 16.0 | 0.0 | 0.00 | 0.00 | 0.00 | 30 | 1013.0 |
| 20260905124848 | 91 | 210 | 14.0 | 0.0 | 0.00 | 0.00 | 0.00 | 30 | 1014.0 |
| 20260905123354 | 91 | 210 | 14.0 | 0.0 | 0.00 | 0.00 | 0.00 | 30 | 1014.0 |
| 20260905121921 | 91 | 210 | 14.0 | 0.0 | 0.00 | 0.00 | 0.00 | 30 | 1014.0 |
| 20260905120354 | 91 | 210 | 14.0 | 0.0 | 0.00 | 0.00 | 0.00 | 30 | 1014.0 |
| 20260905114854 | 91 | 220 | 11.0 | 0.0 | 0.00 | 0.00 | 0.00 | 30 | 1015.0 |
| 20260905113353 | 91 | 220 | 11.0 | 0.0 | 0.00 | 0.00 | 0.00 | 30 | 1015.0 |
| 20260905111912 | 91 | 220 | 11.0 | 0.0 | 0.00 | 0.00 | 0.00 | 30 | 1015.0 |
| 20260905110353 | 91 | 220 | 11.0 | 0.0 | 0.00 | 0.00 | 0.00 | 30 | 1015.0 |
| 20260905104854 | 90 | 270 | 7.0 | 0.0 | 0.00 | 0.00 | 0.00 | 29 | 1015.0 |
| 20260905103354 | 90 | 270 | 7.0 | 0.0 | 0.00 | 0.00 | 0.00 | 29 | 1015.0 |
| 20260905101853 | 90 | 270 | 7.0 | 0.0 | 0.00 | 0.00 | 0.00 | 29 | 1015.0 |
| 20260905100354 | 90 | 270 | 7.0 | 0.0 | 0.00 | 0.00 | 0.00 | 29 | 1015.0 |
| 20260905095015 | 0 | 0.0 | 0.0 | 0.00 | 0.00 | 0.00 | |||
| 20260905093353 | 88 | 230 | 11.0 | 0.0 | 0.00 | 0.00 | 0.00 | 33 | 1016.0 |
| 20260905091854 | 88 | 230 | 11.0 | 0.0 | 0.00 | 0.00 | 0.00 | 33 | 1016.0 |
| 20260905090354 | 88 | 230 | 11.0 | 0.0 | 0.00 | 0.00 | 0.00 | 33 | 1016.0 |
| 20260905084853 | 84 | 3.0 | 0.0 | 0.00 | 0.00 | 0.00 | 33 | 1016.0 | |
| 20260905083354 | 84 | 3.0 | 0.0 | 0.00 | 0.00 | 0.00 | 33 | 1016.0 | |
| 20260905081853 | 84 | 3.0 | 0.0 | 0.00 | 0.00 | 0.00 | 33 | 1016.0 | |
| 20260905080354 | 84 | 3.0 | 0.0 | 0.00 | 0.00 | 0.00 | 33 | 1016.0 | |
| 20260905074853 | 0 | 0.0 | 0.0 | 0.00 | 0.00 | 0.00 | |||
| 20260905073402 | 0 | 0.0 | 0.0 | 0.00 | 0.00 | 0.00 | |||
| 20260905071854 | 0 | 0.0 | 0.0 | 0.00 | 0.00 | 0.00 | |||
| 20260905070354 | 0 | 0.0 | 0.0 | 0.00 | 0.00 | 0.00 | |||
| 20260905064854 | 0 | 0.0 | 0.0 | 0.00 | 0.00 | 0.00 | |||
| 20260905063354 | 0 | 0.0 | 0.0 | 0.00 | 0.00 | 0.00 | |||
| 20260905061854 | 0 | 0.0 | 0.0 | 0.00 | 0.00 | 0.00 | |||
| 20260905060355 | 0 | 0.0 | 0.0 | 0.00 | 0.00 | 0.00 | |||
| 20260905054854 | 64 | 230 | 5.0 | 0.0 | 0.00 | 0.00 | 0.00 | 68 | 1016.0 |
| 20260905053354 | 64 | 230 | 5.0 | 0.0 | 0.00 | 0.00 | 0.00 | 68 | 1016.0 |
| 20260905051853 | 64 | 230 | 5.0 | 0.0 | 0.00 | 0.00 | 0.00 | 68 | 1016.0 |
| 20260905050354 | 64 | 230 | 5.0 | 0.0 | 0.00 | 0.00 | 0.00 | 68 | 1016.0 |
| 20260905044854 | 66 | 280 | 9.0 | 0.0 | 0.00 | 0.00 | 0.00 | 60 | 1015.0 |
| 20260905043353 | 66 | 280 | 9.0 | 0.0 | 0.00 | 0.00 | 0.00 | 60 | 1015.0 |
| 20260905041854 | 66 | 280 | 9.0 | 0.0 | 0.00 | 0.00 | 0.00 | 60 | 1015.0 |
| 20260905040353 | 66 | 280 | 9.0 | 0.0 | 0.00 | 0.00 | 0.00 | 60 | 1015.0 |
| 20260905034855 | 63 | 300 | 7.0 | 0.0 | 0.00 | 0.00 | 0.00 | 68 | 1015.0 |
| 20260905033353 | 63 | 300 | 7.0 | 0.0 | 0.00 | 0.00 | 0.00 | 68 | 1015.0 |
| 20260905031854 | 63 | 300 | 7.0 | 0.0 | 0.00 | 0.00 | 0.00 | 68 | 1015.0 |
| 20260905030354 | 63 | 300 | 7.0 | 0.0 | 0.00 | 0.00 | 0.00 | 68 | 1015.0 |
| 20260905024907 | 63 | 300 | 7.0 | 0.0 | 0.00 | 0.00 | 0.00 | 77 | 1015.0 |
| 20260905023354 | 63 | 300 | 7.0 | 0.0 | 0.00 | 0.00 | 0.00 | 77 | 1015.0 |
| 20260905021854 | 63 | 300 | 7.0 | 0.0 | 0.00 | 0.00 | 0.00 | 77 | 1015.0 |
| 20260905020355 | 63 | 300 | 7.0 | 0.0 | 0.00 | 0.00 | 0.00 | 77 | 1015.0 |
| 20260905014854 | 63 | 300 | 7.0 | 0.0 | 0.00 | 0.00 | 0.00 | 77 | 1015.0 |
| 20260905013353 | 64 | 320 | 7.0 | 0.0 | 0.00 | 0.00 | 0.00 | 73 | 1015.0 |
| 20260905011854 | 64 | 320 | 7.0 | 0.0 | 0.00 | 0.00 | 0.00 | 73 | 1015.0 |
| 20260905010354 | 64 | 320 | 7.0 | 0.0 | 0.00 | 0.00 | 0.00 | 73 | 1015.0 |
| 20260905004854 | 64 | 320 | 7.0 | 0.0 | 0.00 | 0.00 | 0.00 | 73 | 1015.0 |
| 20260905003354 | 64 | 310 | 7.0 | 0.0 | 0.00 | 0.00 | 0.00 | 68 | 1015.0 |
| 20260905001854 | 64 | 310 | 7.0 | 0.0 | 0.00 | 0.00 | 0.00 | 68 | 1015.0 |
| 20260905000355 | 0 | 0.0 | 0.0 | 0.00 | 0.00 | 0.00 | |||
| 20260904234854 | 0 | 0.0 | 0.0 | 0.00 | 0.00 | 0.00 | |||
| 20260904233354 | 0 | 0.0 | 0.0 | 0.00 | 0.00 | 0.00 | |||
| 20260904231856 | 0 | 0.0 | 0.0 | 0.00 | 0.00 | 0.00 | |||
| 20260904230354 | 0 | 0.0 | 0.0 | 0.00 | 0.00 | 0.00 | |||
| 20260904224856 | 66 | 320 | 7.0 | 0.0 | 0.00 | 0.00 | 0.00 | 64 | 1016.0 |
| 20260904223354 | 66 | 320 | 7.0 | 0.0 | 0.00 | 0.00 | 0.00 | 64 | 1016.0 |
| 20260904221854 | 66 | 320 | 7.0 | 0.0 | 0.00 | 0.00 | 0.00 | 64 | 1016.0 |
| 20260904220354 | 66 | 320 | 7.0 | 0.0 | 0.00 | 0.00 | 0.00 | 64 | 1016.0 |
| 20260904214854 | 66 | 320 | 7.0 | 0.0 | 0.00 | 0.00 | 0.00 | 64 | 1016.0 |
| 20260904213353 | 66 | 330 | 7.0 | 0.0 | 0.00 | 0.00 | 0.00 | 68 | 1016.0 |
| 20260904211854 | 66 | 330 | 7.0 | 0.0 | 0.00 | 0.00 | 0.00 | 68 | 1016.0 |
| 20260904210353 | 66 | 330 | 7.0 | 0.0 | 0.00 | 0.00 | 0.00 | 68 | 1016.0 |
| 20260904204855 | 66 | 330 | 7.0 | 0.0 | 0.00 | 0.00 | 0.00 | 68 | 1016.0 |
| 20260904203354 | 68 | 310 | 7.0 | 0.0 | 0.00 | 0.00 | 0.00 | 64 | 1016.0 |
| 20260904201854 | 68 | 310 | 7.0 | 0.0 | 0.00 | 0.00 | 0.00 | 64 | 1016.0 |
| 20260904200416 | 0 | 0.0 | 0.0 | 0.00 | 0.00 | 0.00 | |||
| 20260904194853 | 68 | 300 | 7.0 | 0.0 | 0.00 | 0.00 | 0.00 | 64 | 1016.0 |
| 20260904193415 | 0 | 0.0 | 0.0 | 0.00 | 0.00 | 0.00 | |||
| 20260904191853 | 68 | 300 | 7.0 | 0.0 | 0.00 | 0.00 | 0.00 | 64 | 1016.0 |
| 20260904190354 | 68 | 300 | 7.0 | 0.0 | 0.00 | 0.00 | 0.00 | 64 | 1016.0 |
| 20260904184854 | 73 | 280 | 7.0 | 0.0 | 0.00 | 0.00 | 0.00 | 53 | 1016.0 |
| 20260904183353 | 73 | 280 | 7.0 | 0.0 | 0.00 | 0.00 | 0.00 | 53 | 1016.0 |
| 20260904181859 | 73 | 280 | 7.0 | 0.0 | 0.00 | 0.00 | 0.00 | 53 | 1016.0 |
| 20260904180353 | 73 | 280 | 7.0 | 0.0 | 0.00 | 0.00 | 0.00 | 53 | 1016.0 |
| 20260904174853 | 79 | 250 | 9.0 | 0.0 | 0.00 | 0.00 | 0.00 | 45 | 1015.0 |
| 20260904173354 | 79 | 250 | 9.0 | 0.0 | 0.00 | 0.00 | 0.00 | 45 | 1015.0 |
| 20260904171854 | 79 | 250 | 9.0 | 0.0 | 0.00 | 0.00 | 0.00 | 45 | 1015.0 |
| 20260904170354 | 79 | 250 | 9.0 | 0.0 | 0.00 | 0.00 | 0.00 | 45 | 1015.0 |
| 20260904164853 | 84 | 250 | 14.0 | 0.0 | 0.00 | 0.00 | 0.00 | 35 | 1015.0 |
| 20260904163353 | 84 | 250 | 14.0 | 0.0 | 0.00 | 0.00 | 0.00 | 35 | 1015.0 |
| 20260904161854 | 84 | 250 | 14.0 | 0.0 | 0.00 | 0.00 | 0.00 | 35 | 1015.0 |
| 20260904160353 | 84 | 250 | 14.0 | 0.0 | 0.00 | 0.00 | 0.00 | 35 | 1015.0 |
| 20260904154854 | 86 | 230 | 14.0 | 0.0 | 0.00 | 0.00 | 0.00 | 33 | 1015.0 |